Terug naar catalogus

FENGYUN 1C DEB

ActiefSSO
NORAD 31906·DEBRIS·🇨🇳 China

Gelanceerd May 10, 1999 vanaf Taiyuan Satellite Launch Center

Loading…

Volgende Passages (komende 24 uur)

TLE

VersSource: Space-Track

Epoch: Sep 14, 2026, 08:13 UTC

1 31906U 99025CLH 26257.34261291  .00001064  00000-0  45072-3 0  9996
2 31906  98.7045  33.4338 0052672  36.9357 352.7085 14.26803487990576

Volg FENGYUN 1C DEB in realtime met AllMySat

Download on the App Store